TimeCDT,TemperatureF,Dew PointF,Humidity,Sea Level PressureIn,VisibilityMPH,Wind Direction,Wind SpeedMPH,Gust SpeedMPH,PrecipitationIn,Events,Conditions,WindDirDegrees,DateUTC
12:15 AM,62.6,44.6,52,30.08,10.0,Calm,Calm,-,N/A,,Clear,0,2012-11-01 05:15:00
12:35 AM,60.8,44.6,55,30.08,10.0,Calm,Calm,-,N/A,,Clear,0,2012-11-01 05:35:00
12:55 AM,62.6,44.6,52,30.08,10.0,East,4.6,-,N/A,,Clear,90,2012-11-01 05:55:00
1:15 AM,60.8,44.6,55,30.07,10.0,Calm,Calm,-,N/A,,Clear,0,2012-11-01 06:15:00
1:35 AM,57.2,44.6,63,30.07,10.0,Calm,Calm,-,N/A,,Clear,0,2012-11-01 06:35:00
1:55 AM,55.4,44.6,67,30.07,10.0,West,3.5,-,N/A,,Clear,260,2012-11-01 06:55:00
2:15 AM,55.4,44.6,67,30.07,10.0,WSW,5.8,-,N/A,,Clear,240,2012-11-01 07:15:00
2:35 AM,55.4,44.6,67,30.07,10.0,WSW,3.5,-,N/A,,Clear,240,2012-11-01 07:35:00
2:55 AM,53.6,44.6,72,30.07,10.0,SW,3.5,-,N/A,,Clear,230,2012-11-01 07:55:00
3:15 AM,55.4,44.6,67,30.07,10.0,Calm,Calm,-,N/A,,Clear,0,2012-11-01 08:15:00
3:35 AM,53.6,44.6,72,30.07,10.0,Calm,Calm,-,N/A,,Clear,0,2012-11-01 08:35:00
3:55 AM,55.4,44.6,67,30.06,10.0,Calm,Calm,-,N/A,,Clear,0,2012-11-01 08:55:00
4:15 AM,55.4,44.6,67,30.06,10.0,Calm,Calm,-,N/A,,Clear,0,2012-11-01 09:15:00
4:35 AM,55.4,46.4,72,30.06,10.0,Calm,Calm,-,N/A,,Clear,0,2012-11-01 09:35:00
4:55 AM,55.4,46.4,72,30.06,10.0,Calm,Calm,-,N/A,,Clear,0,2012-11-01 09:55:00
5:15 AM,55.4,46.4,72,30.06,10.0,West,3.5,-,N/A,,Clear,270,2012-11-01 10:15:00
5:35 AM,53.6,46.4,77,30.06,10.0,West,3.5,-,N/A,,Clear,280,2012-11-01 10:35:00
6:15 AM,55.4,46.4,72,30.06,10.0,WSW,5.8,-,N/A,,Clear,250,2012-11-01 11:15:00
6:35 AM,53.6,46.4,77,30.06,10.0,WSW,5.8,-,N/A,,Clear,250,2012-11-01 11:35:00
6:55 AM,53.6,46.4,77,30.06,10.0,WSW,4.6,-,N/A,,Clear,240,2012-11-01 11:55:00
7:15 AM,51.8,46.4,82,30.07,10.0,West,3.5,-,N/A,,Clear,280,2012-11-01 12:15:00
7:35 AM,51.8,46.4,82,30.07,10.0,West,3.5,-,N/A,,Clear,280,2012-11-01 12:35:00
7:55 AM,51.8,46.4,82,30.08,10.0,WNW,4.6,-,N/A,,Clear,300,2012-11-01 12:55:00
8:15 AM,55.4,48.2,77,30.08,10.0,West,3.5,-,N/A,,Clear,280,2012-11-01 13:15:00
8:35 AM,57.2,51.8,82,30.09,10.0,West,4.6,-,N/A,,Clear,280,2012-11-01 13:35:00
8:55 AM,60.8,51.8,72,30.09,10.0,West,4.6,-,N/A,,Clear,260,2012-11-01 13:55:00
9:15 AM,62.6,53.6,72,30.10,10.0,WSW,3.5,-,N/A,,Clear,240,2012-11-01 14:15:00
9:35 AM,64.4,53.6,68,30.10,10.0,WSW,4.6,-,N/A,,Clear,250,2012-11-01 14:35:00
9:55 AM,66.2,55.4,68,30.11,10.0,SW,5.8,-,N/A,,Clear,220,2012-11-01 14:55:00
10:35 AM,71.6,57.2,60,30.11,10.0,SSW,6.9,-,N/A,,Clear,210,2012-11-01 15:35:00
10:55 AM,73.4,59.0,61,30.11,10.0,SSW,5.8,-,N/A,,Clear,210,2012-11-01 15:55:00
11:15 AM,75.2,59.0,57,30.11,10.0,Variable,4.6,-,N/A,,Clear,0,2012-11-01 16:15:00
11:35 AM,78.8,57.2,47,30.11,10.0,South,6.9,-,N/A,,Clear,180,2012-11-01 16:35:00
11:55 AM,78.8,57.2,47,30.11,10.0,SW,8.1,-,N/A,,Clear,230,2012-11-01 16:55:00
12:15 PM,78.8,53.6,42,30.10,10.0,SSE,6.9,-,N/A,,Clear,160,2012-11-01 17:15:00
12:55 PM,80.6,48.2,32,30.08,10.0,South,5.8,-,N/A,,Clear,190,2012-11-01 17:55:00
2:35 PM,82.4,46.4,28,30.03,10.0,Variable,5.8,-,N/A,,Clear,0,2012-11-01 19:35:00
3:15 PM,84.2,46.4,27,30.00,10.0,SSW,11.5,-,N/A,,Clear,210,2012-11-01 20:15:00
7:35 PM,73.4,42.8,33,30.00,10.0,SE,6.9,-,N/A,,Clear,140,2012-11-02 00:35:00
9:35 PM,66.2,46.4,49,30.02,10.0,SE,5.8,-,N/A,,Clear,140,2012-11-02 02:35:00
9:55 PM,66.2,46.4,49,30.02,10.0,SSE,5.8,-,N/A,,Clear,150,2012-11-02 02:55:00
10:15 PM,66.2,46.4,49,30.03,10.0,SSE,4.6,-,N/A,,Clear,150,2012-11-02 03:15:00
10:35 PM,66.2,48.2,52,30.03,10.0,SSE,5.8,-,N/A,,Clear,160,2012-11-02 03:35:00
10:55 PM,66.2,48.2,52,30.03,10.0,SSE,5.8,-,N/A,,Clear,150,2012-11-02 03:55:00
11:15 PM,64.4,48.2,56,30.04,10.0,SSE,4.6,-,N/A,,Clear,150,2012-11-02 04:15:00
11:35 PM,64.4,50.0,59,30.03,10.0,SSE,4.6,-,N/A,,Clear,160,2012-11-02 04:35:00
11:55 PM,64.4,50.0,59,30.03,10.0,Calm,Calm,-,N/A,,Clear,0,2012-11-02 04:55:00